TimeEST,TemperatureF,Dew PointF,Humidity,Sea Level PressureIn,VisibilityMPH,Wind Direction,Wind SpeedMPH,Gust SpeedMPH,PrecipitationIn,Events,Conditions,WindDirDegrees,DateUTC
12:15 AM,53.6,53.6,100,30.11,0.5,Calm,Calm,-,N/A,Fog,Fog,0,2012-12-16 05:15:00
12:35 AM,53.6,53.6,100,30.10,0.5,Calm,Calm,-,N/A,Fog,Fog,0,2012-12-16 05:35:00
12:55 AM,53.6,53.6,100,30.11,0.5,West,4.6,-,N/A,Fog,Fog,270,2012-12-16 05:55:00
1:15 AM,53.6,53.6,100,30.10,0.5,West,3.5,-,N/A,Fog,Fog,260,2012-12-16 06:15:00
1:35 AM,53.6,53.6,100,30.10,0.5,Calm,Calm,-,N/A,Fog,Fog,0,2012-12-16 06:35:00
1:55 AM,53.6,53.6,100,30.10,0.5,West,3.5,-,N/A,Fog,Fog,280,2012-12-16 06:55:00
2:15 AM,53.6,53.6,100,30.10,0.8,West,3.5,-,N/A,,Overcast,260,2012-12-16 07:15:00
2:55 AM,53.6,53.6,100,30.07,0.5,Calm,Calm,-,N/A,Fog,Fog,0,2012-12-16 07:55:00
3:15 AM,53.6,53.6,100,30.07,0.2,Calm,Calm,-,N/A,Fog,Fog,0,2012-12-16 08:15:00
3:55 AM,51.8,51.8,100,30.06,0.2,Calm,Calm,-,N/A,Fog,Fog,0,2012-12-16 08:55:00
4:35 AM,51.8,51.8,100,30.08,7.0,Calm,Calm,-,N/A,,Clear,0,2012-12-16 09:35:00
4:55 AM,51.8,51.8,100,30.07,5.0,Calm,Calm,-,N/A,,Clear,0,2012-12-16 09:55:00
5:15 AM,51.8,51.8,100,30.07,2.5,Calm,Calm,-,N/A,,Clear,0,2012-12-16 10:15:00
5:35 AM,51.8,51.8,100,30.07,4.0,Calm,Calm,-,N/A,,Clear,0,2012-12-16 10:35:00
5:55 AM,51.8,51.8,100,30.08,5.0,Calm,Calm,-,N/A,,Clear,0,2012-12-16 10:55:00
6:15 AM,51.8,51.8,100,30.08,10.0,NW,3.5,-,N/A,,Scattered Clouds,310,2012-12-16 11:15:00
6:35 AM,51.8,51.8,100,30.08,10.0,Calm,Calm,-,N/A,,Scattered Clouds,0,2012-12-16 11:35:00
6:55 AM,51.8,51.8,100,30.10,7.0,Calm,Calm,-,N/A,,Mostly Cloudy,0,2012-12-16 11:55:00
7:15 AM,51.8,51.8,100,30.09,5.0,Calm,Calm,-,N/A,,Overcast,0,2012-12-16 12:15:00
7:35 AM,51.8,51.8,100,30.10,5.0,Calm,Calm,-,N/A,,Mostly Cloudy,0,2012-12-16 12:35:00
7:55 AM,53.6,53.6,100,30.10,5.0,Calm,Calm,-,N/A,,Mostly Cloudy,0,2012-12-16 12:55:00
8:15 AM,53.6,53.6,100,30.10,7.0,Calm,Calm,-,N/A,,Scattered Clouds,0,2012-12-16 13:15:00
8:35 AM,53.6,53.6,100,30.10,7.0,Calm,Calm,-,N/A,,Mostly Cloudy,0,2012-12-16 13:35:00
8:55 AM,53.6,53.6,100,30.11,10.0,Calm,Calm,-,N/A,,Overcast,0,2012-12-16 13:55:00
9:15 AM,55.4,55.4,100,30.11,10.0,Calm,Calm,-,N/A,,Overcast,0,2012-12-16 14:15:00
9:35 AM,55.4,55.4,100,30.11,10.0,Calm,Calm,-,N/A,,Overcast,0,2012-12-16 14:35:00
9:55 AM,55.4,55.4,100,30.11,7.0,Calm,Calm,-,N/A,,Overcast,0,2012-12-16 14:55:00
10:15 AM,55.4,55.4,100,30.10,5.0,Calm,Calm,-,N/A,,Overcast,0,2012-12-16 15:15:00
10:35 AM,57.2,57.2,100,30.09,5.0,Calm,Calm,-,N/A,,Overcast,0,2012-12-16 15:35:00
10:55 AM,59.0,59.0,100,30.09,7.0,Calm,Calm,-,N/A,,Overcast,0,2012-12-16 15:55:00
11:15 AM,60.8,60.8,100,30.08,10.0,Calm,Calm,-,N/A,,Mostly Cloudy,0,2012-12-16 16:15:00
11:35 AM,60.8,60.8,100,30.08,10.0,Calm,Calm,-,N/A,,Scattered Clouds,0,2012-12-16 16:35:00
11:55 AM,60.8,60.8,100,30.07,10.0,Calm,Calm,-,N/A,,Scattered Clouds,0,2012-12-16 16:55:00
12:35 PM,60.8,60.8,100,30.04,10.0,SE,4.6,-,N/A,,Clear,130,2012-12-16 17:35:00
12:55 PM,60.8,60.8,100,30.04,10.0,ESE,8.1,-,N/A,,Clear,110,2012-12-16 17:55:00
1:15 PM,60.8,60.8,100,30.03,10.0,ESE,6.9,-,N/A,,Scattered Clouds,120,2012-12-16 18:15:00
1:35 PM,62.6,60.8,94,30.02,10.0,ESE,6.9,-,N/A,,Scattered Clouds,110,2012-12-16 18:35:00
1:55 PM,62.6,60.8,94,30.02,10.0,ESE,8.1,-,N/A,,Scattered Clouds,110,2012-12-16 18:55:00
2:15 PM,62.6,60.8,94,30.00,10.0,ESE,8.1,-,N/A,,Scattered Clouds,110,2012-12-16 19:15:00
2:35 PM,62.6,60.8,94,29.99,10.0,SE,9.2,-,N/A,,Scattered Clouds,130,2012-12-16 19:35:00
2:55 PM,64.4,60.8,88,29.99,10.0,ESE,8.1,-,N/A,,Scattered Clouds,120,2012-12-16 19:55:00
3:15 PM,62.6,60.8,94,30.00,10.0,ESE,8.1,-,N/A,,Clear,120,2012-12-16 20:15:00
3:35 PM,60.8,60.8,100,30.00,10.0,ESE,9.2,-,N/A,,Clear,120,2012-12-16 20:35:00
3:55 PM,60.8,60.8,100,29.99,10.0,SE,9.2,-,N/A,,Clear,130,2012-12-16 20:55:00
4:15 PM,60.8,60.8,100,30.00,10.0,ESE,8.1,-,N/A,,Clear,120,2012-12-16 21:15:00
4:35 PM,59.0,59.0,100,30.00,10.0,SE,6.9,-,N/A,,Mostly Cloudy,130,2012-12-16 21:35:00
5:15 PM,59.0,59.0,100,30.00,10.0,ESE,3.5,-,N/A,,Mostly Cloudy,120,2012-12-16 22:15:00
5:35 PM,59.0,59.0,100,29.99,10.0,Calm,Calm,-,N/A,,Mostly Cloudy,0,2012-12-16 22:35:00
5:55 PM,59.0,59.0,100,29.98,10.0,ESE,4.6,-,N/A,,Mostly Cloudy,120,2012-12-16 22:55:00
6:15 PM,59.0,59.0,100,29.97,10.0,ESE,5.8,-,N/A,,Mostly Cloudy,120,2012-12-16 23:15:00
6:35 PM,59.0,59.0,100,29.98,10.0,Calm,Calm,-,N/A,,Mostly Cloudy,0,2012-12-16 23:35:00
6:55 PM,59.0,59.0,100,29.97,7.0,Calm,Calm,-,N/A,,Overcast,0,2012-12-16 23:55:00
7:15 PM,59.0,59.0,100,29.97,7.0,Calm,Calm,-,N/A,,Mostly Cloudy,0,2012-12-17 00:15:00
7:35 PM,59.0,59.0,100,29.97,7.0,Calm,Calm,-,N/A,,Mostly Cloudy,0,2012-12-17 00:35:00
7:55 PM,59.0,59.0,100,29.97,7.0,Calm,Calm,-,N/A,,Overcast,0,2012-12-17 00:55:00
8:15 PM,59.0,59.0,100,29.96,5.0,Calm,Calm,-,N/A,,Overcast,0,2012-12-17 01:15:00
8:35 PM,59.0,59.0,100,29.96,7.0,Calm,Calm,-,N/A,,Overcast,0,2012-12-17 01:35:00
8:55 PM,59.0,59.0,100,29.96,7.0,Calm,Calm,-,N/A,,Overcast,0,2012-12-17 01:55:00
9:15 PM,59.0,59.0,100,29.95,7.0,Calm,Calm,-,N/A,,Mostly Cloudy,0,2012-12-17 02:15:00
9:35 PM,59.0,59.0,100,29.95,7.0,Calm,Calm,-,N/A,,Overcast,0,2012-12-17 02:35:00
9:55 PM,59.0,59.0,100,29.95,7.0,Calm,Calm,-,N/A,,Overcast,0,2012-12-17 02:55:00
10:15 PM,59.0,59.0,100,29.95,10.0,Calm,Calm,-,N/A,,Mostly Cloudy,0,2012-12-17 03:15:00
10:35 PM,59.0,59.0,100,29.94,10.0,SSE,4.6,-,N/A,,Scattered Clouds,160,2012-12-17 03:35:00
10:55 PM,62.6,62.6,100,29.94,10.0,South,6.9,-,N/A,,Mostly Cloudy,170,2012-12-17 03:55:00
11:15 PM,62.6,62.6,100,29.94,10.0,South,4.6,-,N/A,,Overcast,170,2012-12-17 04:15:00
11:35 PM,62.6,62.6,100,29.93,10.0,South,5.8,-,N/A,,Mostly Cloudy,170,2012-12-17 04:35:00
11:55 PM,62.6,62.6,100,29.92,10.0,South,4.6,-,N/A,,Scattered Clouds,190,2012-12-17 04:55:00